Wind_Speed
11 11 12 12 13 13 14 14 15 15 15 15 15 15 15 15 16 16 17 17 18 19 20 21 22 22 21 20 20 20 21 21 20 19 19 18 17 16 16 16 16 16 16 16 17 17 18 18 18 19 19 20 20 21 22 22 21 21 21 21 21 21 21 20 20 19 19 18 18
11 12 13 13 14 14 15 15 16 16 16 16 16 17 17 17 17 18 18 17 17 18 18 18 18 19 19 19 19 20 20 21 21 21 20 20 20 19 18 18 17 17 17 18 18 18 19 19 19 20 21 21 22 22 23 23 23 23 23 23 22 22 21 21 20 20 19 19 18
12 13 13 14 14 15 15 16 16 17 17 17 18 18 19 19 19 20 20 20 20 19 19 18 18 18 18 18 18 19 19 19 19 20 20 21 21 21 20 20 20 20 20 20 20 20 20 21 21 22 22 23 23 24 24 25 25 25 25 24 24 23 23 22 22 21 20 20 19
12 13 13 13 14 14 15 16 16 16 17 18 18 19 19 20 21 21 22 22 22 22 21 21 21 21 20 20 20 20 19 19 19 19 20 20 21 21 21 22 22 22 23 22 22 22 22 23 23 24 24 25 25 25 26 26 26 26 26 26 25 25 24 24 23 22 21 21 20
12 12 13 13 13 14 14 14 15 16 16 17 18 19 20 20 21 22 22 23 23 23 24 24 24 24 24 24 23 23 22 22 21 21 21 22 22 22 23 23 23 24 24 24 24 24 24 24 25 25 26 26 26 27 27 27 27 27 28 28 27 26 26 25 24 23 23 22 21
12 12 12 13 13 13 13 14 15 15 16 17 18 19 20 20 21 21 22 23 23 24 24 25 26 26 26 26 26 26 25 25 25 24 24 24 25 25 25 25 25 25 25 25 25 25 25 25 26 26 27 27 27 28 28 28 28 29 29 29 29 28 27 27 26 25 24 24 23
12 12 12 12 13 13 14 14 15 16 17 18 19 19 20 20 21 21 22 23 24 24 25 26 26 27 27 27 27 27 27 27 27 27 26 27 27 27 27 27 26 26 26 26 26 26 26 26 26 27 27 28 28 29 29 29 29 30 30 31 30 30 29 29 28 27 26 25 25
12 12 13 13 13 14 15 15 16 17 18 19 19 20 20 21 21 22 23 23 24 25 25 26 26 27 27 27 28 28 28 28 28 28 28 28 28 28 28 28 28 28 27 27 26 26 26 27 27 28 28 29 29 30 30 30 30 31 31 32 32 31 31 30 29 28 28 27 26
13 14 14 15 15 16 16 17 18 19 19 20 20 20 21 21 22 22 23 23 24 25 26 26 27 27 27 27 27 28 28 28 28 28 28 28 28 29 29 29 29 29 28 28 27 27 27 27 28 29 29 30 30 31 31 31 31 32 32 32 33 33 32 32 31 30 29 28 27
15 16 16 17 17 17 18 19 19 20 21 21 21 22 22 22 23 23 23 24 25 26 26 27 27 27 27 27 27 28 28 28 28 28 28 29 29 29 29 29 29 29 29 29 28 28 28 28 29 29 30 30 31 32 32 32 32 33 33 33 33 33 33 33 32 31 30 29 28
16 17 17 18 18 19 19 20 21 21 22 22 22 23 23 24 24 24 25 25 26 27 27 27 27 27 28 28 28 28 28 28 28 28 29 29 29 29 29 29 29 29 29 29 29 28 28 28 29 29 30 31 31 32 32 32 33 33 34 33 33 33 34 34 33 32 31 30 30
17 18 18 18 19 20 20 21 22 23 23 23 23 24 24 25 25 26 26 27 27 28 28 28 28 28 28 28 29 29 29 29 29 29 29 29 30 30 30 30 30 30 30 30 29 29 28 28 28 29 30 31 31 32 32 33 33 34 34 34 34 34 34 34 33 33 32 31 30
17 18 18 19 19 20 21 22 23 23 24 24 24 25 26 26 26 27 27 28 28 29 29 29 29 29 29 29 29 30 30 30 30 30 30 30 30 30 30 31 31 31 31 31 30 29 28 28 28 29 30 31 31 32 33 33 34 34 34 34 34 35 35 35 34 34 33 32 31
17 18 19 20 20 21 23 24 24 24 24 25 26 27 27 28 28 28 28 28 29 30 30 30 30 30 30 30 31 31 31 31 31 31 31 31 31 31 31 31 31 31 31 31 31 30 29 29 29 29 30 31 31 32 33 33 33 34 34 34 34 35 35 35 35 34 33 33 32
18 19 20 21 22 23 24 25 25 25 25 26 27 28 28 28 29 29 29 30 31 31 32 32 32 32 32 32 32 32 32 32 31 31 31 32 32 32 31 31 31 31 31 31 31 31 30 30 30 30 30 31 31 32 32 33 33 34 34 34 35 35 35 35 35 35 34 33 33
19 20 21 23 24 25 26 26 26 26 26 27 28 29 29 30 30 31 31 32 32 33 32 33 33 33 33 33 33 32 32 32 32 31 31 32 32 32 32 32 32 31 31 31 31 31 31 31 31 31 31 31 31 32 32 32 33 33 34 35 35 35 36 36 36 35 35 34 33
21 22 24 25 26 27 27 27 27 27 28 29 29 30 30 31 32 32 32 33 33 33 33 33 33 33 33 33 33 33 32 32 31 31 31 31 32 32 32 32 32 32 32 32 32 32 32 32 32 32 32 32 32 32 32 32 33 33 34 34 35 35 36 36 36 36 35 35 35
23 25 26 27 27 28 28 28 28 29 29 30 30 31 31 32 32 33 33 33 33 33 33 33 34 34 33 34 34 33 32 32 32 32 32 32 32 32 32 32 33 32 32 32 32 32 33 33 33 33 32 32 32 32 32 32 32 33 33 34 34 35 36 36 36 36 35 35 35
25 26 27 27 28 28 29 29 29 29 30 30 31 32 32 32 33 33 33 34 33 33 33 33 34 34 34 34 34 33 33 32 32 33 33 33 33 32 33 33 33 33 32 32 32 33 33 33 33 33 33 33 33 32 32 32 32 32 33 33 34 34 35 36 36 36 36 36 36
26 27 28 28 28 29 29 29 29 30 30 31 31 32 32 33 33 33 33 34 34 34 33 34 34 34 35 35 34 34 34 33 33 33 33 33 33 33 33 33 33 33 33 33 33 33 33 34 33 33 33 33 33 33 33 33 32 32 32 33 33 34 34 35 36 36 36 36 36
27 27 28 28 29 29 29 30 30 30 31 31 31 32 33 33 33 33 33 34 34 34 34 34 34 35 35 35 35 34 34 34 33 33 33 33 33 33 33 33 33 33 33 33 33 33 33 33 33 33 33 33 33 33 33 32 32 33 33 33 33 33 34 35 35 36 36 36 37
28 28 28 29 29 29 29 30 30 30 31 31 32 32 33 33 33 34 34 35 35 35 34 35 35 35 35 35 35 35 35 35 34 34 34 34 34 34 33 33 33 33 33 33 33 33 33 33 33 33 33 33 33 33 33 33 33 33 33 34 34 34 34 35 35 36 36 37 37
28 29 29 29 29 29 30 30 30 31 31 32 32 33 33 33 34 34 35 35 35 35 35 35 35 35 35 35 35 35 35 35 36 36 35 34 34 34 34 33 32 32 33 33 32 32 32 31 31 31 31 31 32 32 33 33 33 34 34 34 35 35 36 36 36 36 37 37 37
28 29 29 29 29 30 30 30 30 31 31 32 32 33 33 34 34 35 35 35 35 35 35 35 35 35 35 35 34 34 34 35 35 35 35 35 34 33 33 32 31 31 31 31 30 30 29 28 28 28 28 28 29 29 30 30 31 32 32 33 34 35 35 36 36 37 37 37 37
29 29 29 29 30 30 30 30 30 31 31 32 32 33 33 34 34 34 35 35 35 35 35 35 35 35 35 34 34 33 33 33 33 34 34 34 34 33 32 30 30 30 29 29 29 29 28 28 27 27 27 27 27 27 27 28 28 29 30 31 31 32 33 34 35 36 37 37 38
29 29 29 29 30 30 30 30 30 31 31 32 32 33 33 33 34 34 34 35 35 36 35 35 34 34 34 33 33 33 32 32 32 32 32 32 33 33 32 31 29 29 29 29 29 30 30 29 29 29 29 28 28 28 28 28 28 28 29 29 29 29 30 31 32 34 35 36 37
29 29 29 29 30 30 30 30 31 31 31 32 32 33 33 33 33 34 34 34 35 35 35 34 33 33 32 32 31 31 31 31 31 31 32 32 33 33 32 32 31 30 30 31 31 31 31 31 31 31 31 30 30 30 30 29 29 29 29 29 29 29 29 29 30 31 33 34 36
28 28 29 29 30 30 31 31 31 31 31 32 32 33 33 33 34 34 34 34 34 34 33 32 31 31 30 29 30 31 31 32 32 32 32 32 32 32 32 32 31 31 32 32 32 32 32 32 32 32 32 32 31 30 31 31 31 30 30 30 30 30 30 31 30 30 30 31 32
27 28 28 29 29 30 31 31 31 31 31 32 32 33 33 33 33 33 33 33 33 32 31 30 30 29 29 30 31 32 33 33 33 32 32 32 33 33 32 32 32 32 33 33 33 33 33 33 33 33 33 32 31 30 30 30 30 30 30 29 29 30 30 30 30 30 29 29 29
27 27 28 28 29 30 31 31 31 31 32 32 32 32 33 33 33 33 32 32 32 32 31 30 30 29 30 31 32 32 32 32 32 32 31 31 32 33 33 33 33 33 34 34 34 34 34 34 34 34 34 33 33 32 30 29 29 29 29 28 28 29 30 30 30 30 29 29 29
27 27 28 29 30 30 31 31 31 32 32 32 32 32 32 32 32 32 32 31 32 32 32 31 31 31 32 32 31 31 32 32 33 32 32 32 33 34 34 34 35 35 36 36 36 36 36 35 35 35 35 34 34 32 31 30 29 30 30 29 29 29 30 30 30 30 30 30 29
27 27 28 29 30 30 31 32 32 32 32 32 32 32 32 31 31 31 31 31 31 31 31 31 31 31 32 32 31 31 32 32 32 33 33 33 34 35 35 35 36 37 37 37 37 36 36 36 36 36 35 35 34 33 32 31 31 31 31 32 32 32 32 31 30 30 30 31 30
27 28 28 29 30 31 31 32 32 32 32 32 32 31 31 31 32 32 31 31 30 30 30 30 31 31 31 32 32 33 33 33 33 34 34 34 34 35 36 37 36 36 36 36 36 36 36 36 36 36 35 35 34 34 34 33 32 31 31 33 33 33 33 32 32 31 32 31 31
27 28 29 30 30 31 32 32 32 32 32 32 32 31 31 31 31 31 31 30 30 30 30 30 30 30 30 31 32 32 33 34 34 35 35 35 35 36 36 36 36 36 36 37 37 37 37 37 37 37 36 36 35 34 34 33 32 32 32 32 33 33 33 33 34 34 33 33 32
27 28 29 30 31 31 32 32 32 31 31 31 31 31 31 31 30 30 30 30 30 30 30 31 30 30 30 31 31 32 33 34 35 36 36 36 36 36 36 37 38 39 39 39 39 39 39 39 39 38 38 37 35 34 33 33 33 33 33 33 33 34 34 34 34 34 34 34 34
27 28 29 30 31 31 31 31 31 31 30 30 31 31 31 31 31 30 30 29 29 30 31 31 31 31 32 32 32 32 33 33 35 36 36 36 36 36 37 38 39 40 40 40 39 39 40 39 39 38 38 36 35 33 32 31 31 32 33 33 34 34 35 35 35 35 35 35 35
28 28 29 30 30 30 30 30 30 30 30 30 30 30 30 30 30 30 30 29 29 30 31 32 32 32 32 33 33 34 35 35 35 36 37 37 37 36 37 38 39 40 41 40 39 39 39 39 39 38 37 35 33 31 31 30 29 30 32 32 33 34 34 34 34 35 36 36 36
29 29 28 29 29 29 29 29 29 29 29 30 30 30 30 29 29 30 29 28 29 30 31 32 32 32 33 33 33 34 36 36 36 36 36 37 37 37 37 37 39 40 40 40 40 39 38 38 38 37 36 34 32 31 29 29 28 28 29 31 31 32 32 32 33 33 35 37 37
29 29 28 28 28 28 28 28 28 28 29 29 30 30 29 29 29 29 29 28 28 29 31 32 33 34 34 34 34 34 35 36 36 36 36 36 37 37 37 37 38 40 40 41 40 40 39 38 38 37 36 35 33 30 29 28 28 28 28 29 29 29 30 31 31 31 33 35 37
29 29 28 27 27 27 27 28 28 28 28 28 28 29 29 29 29 29 29 29 29 29 30 31 33 34 34 34 33 33 35 36 36 36 36 37 38 38 38 38 38 40 41 41 40 40 39 38 38 37 36 34 32 30 28 27 26 27 28 28 28 27 28 29 29 30 31 33 35
29 28 28 27 26 26 27 27 28 28 28 27 28 28 28 28 29 29 29 29 30 30 31 31 33 34 34 33 33 33 33 35 37 38 38 38 38 38 38 38 38 39 40 40 39 39 38 37 36 36 35 32 30 28 27 25 25 26 27 28 27 27 26 27 27 28 29 30 32
Wind_Direction
327 330 332 333 333 333 334 333 335 336 337 337 337 336 334 331 326 323 319 316 311 307 305 304 302 302 301 301 300 298 295 293 291 288 286 283 280 278 277 276 276 277 278 280 283 284 285 285 286 286 286 286 285 285 285 284 284 283 284 284 285 287 288 288 288 289 290 292 294
334 335 335 336 335 335 335 334 334 336 337 337 337 337 337 337 336 335 333 331 327 324 320 316 312 308 306 305 303 301 298 296 293 291 290 289 287 286 285 283 281 280 280 280 281 281 282 282 282 282 282 282 281 281 281 282 282 281 281 281 282 284 284 284 284 285 286 288 290
337 337 337 337 337 336 335 334 334 335 335 335 336 336 336 337 337 337 336 335 334 332 330 326 322 318 314 311 308 304 301 298 295 293 292 291 291 291 290 289 287 285 283 282 281 281 281 281 281 280 280 280 279 279 279 280 281 280 279 279 280 281 280 280 281 282 282 283 284
342 342 341 340 339 337 336 335 334 334 334 334 334 334 334 335 335 335 334 333 333 332 331 329 326 323 320 317 314 310 307 303 298 295 293 292 292 292 291 290 289 288 286 285 283 282 281 281 281 280 280 280 279 278 278 278 279 278 277 277 278 278 278 278 279 279 278 278 279
345 345 344 342 341 339 338 337 336 336 335 335 334 334 334 334 334 334 333 332 331 331 330 328 326 324 322 320 318 315 312 308 304 300 297 295 293 292 291 290 289 288 287 285 284 282 282 281 280 279 279 278 278 277 277 278 277 276 276 276 276 276 276 276 276 276 276 276 276
346 344 343 342 341 339 338 338 337 337 337 337 336 335 335 334 334 333 332 331 330 329 328 326 325 323 322 320 318 316 314 311 308 304 301 299 297 295 293 291 289 288 286 284 283 281 280 279 278 277 276 276 276 276 277 277 276 275 274 274 274 274 274 274 274 274 274 274 274
343 341 340 339 338 338 337 337 336 336 336 336 335 335 334 333 333 331 330 329 328 327 326 324 323 321 320 318 316 315 313 311 309 306 304 301 300 298 296 294 292 290 287 284 282 280 278 276 275 275 274 275 274 274 275 275 274 274 273 272 273 273 272 272 272 272 271 271 270
338 337 337 336 336 336 336 335 335 334 334 333 333 333 332 332 330 329 328 327 326 325 323 321 319 317 315 313 312 310 309 308 306 305 304 302 301 300 298 296 294 292 289 286 283 280 278 276 274 273 273 273 272 273 273 273 273 272 272 271 272 272 271 270 270 270 269 268 268
335 335 335 335 335 335 334 334 333 333 332 331 331 331 330 329 328 328 326 325 324 322 321 319 316 314 311 309 307 306 305 304 303 302 301 301 300 299 298 296 294 292 290 288 285 282 279 277 274 273 272 271 271 272 272 272 272 270 270 269 270 270 270 269 268 267 267 267 266
334 334 335 335 335 334 333 333 332 332 331 331 330 329 329 328 327 326 324 323 322 320 318 316 314 311 309 306 304 302 301 301 300 300 299 298 298 297 296 294 293 291 289 288 286 283 281 278 275 273 271 271 270 270 271 270 269 268 267 267 267 268 268 267 266 265 264 264 263
334 335 335 335 334 333 333 332 332 331 331 330 329 328 327 326 325 324 323 322 320 317 315 313 311 309 306 304 302 301 300 299 299 298 297 296 295 294 293 291 290 288 287 286 284 282 280 276 274 272 271 270 269 268 268 267 266 265 264 263 264 264 264 264 263 263 262 261 261
335 335 335 334 334 333 332 332 332 331 330 329 328 326 325 324 323 322 321 319 317 315 313 311 309 307 304 302 301 300 299 298 298 297 296 295 293 292 290 289 287 286 284 283 282 280 277 274 272 271 270 270 268 267 265 264 263 262 261 261 261 261 260 260 261 260 260 259 258
334 334 334 333 333 333 332 332 331 330 329 327 326 325 324 323 322 321 319 317 314 312 311 309 307 305 303 301 300 299 298 298 297 296 295 293 292 290 288 287 285 284 283 282 280 278 275 273 271 269 268 268 267 265 264 263 261 260 259 259 259 258 258 258 258 258 258 257 256
333 333 333 333 333 333 332 332 330 329 327 325 324 323 322 321 320 319 317 315 313 311 309 308 306 303 302 300 299 298 297 296 296 294 293 292 290 288 287 285 284 283 282 281 280 278 276 273 271 269 268 266 265 264 263 262 260 259 258 257 257 256 256 257 257 256 256 255 254
333 333 333 333 333 332 332 331 330 328 326 324 323 322 321 319 318 316 314 312 310 309 307 306 304 302 301 299 298 297 296 295 294 293 291 290 288 287 286 284 284 282 281 280 280 278 277 275 273 271 269 267 266 264 263 261 260 258 257 256 255 255 255 255 255 254 253 252 251
333 333 333 333 333 332 332 331 328 326 324 322 321 320 318 317 315 313 312 310 308 307 305 304 302 301 300 298 297 296 295 294 293 291 290 288 287 286 285 284 283 282 281 281 280 279 277 276 274 273 271 269 268 266 264 262 260 258 257 255 254 254 253 253 253 252 251 250 249
333 334 334 334 333 332 331 329 327 325 323 321 319 317 316 314 312 311 309 308 306 305 304 302 301 300 299 298 296 295 294 293 292 290 289 287 286 286 285 284 283 282 281 281 280 279 278 276 275 274 272 271 270 268 266 264 262 259 257 255 254 253 252 252 251 250 249 248 248
334 334 334 333 332 330 329 327 325 322 320 318 316 315 313 312 310 309 308 306 305 304 303 301 300 299 298 297 296 295 294 292 291 289 288 287 286 285 284 283 283 282 281 280 279 278 277 276 275 274 273 272 270 269 268 266 264 261 259 256 254 253 252 251 250 249 248 247 246
334 334 333 332 330 328 326 324 322 320 318 316 314 312 311 310 309 308 307 306 305 304 302 301 300 299 297 296 295 294 293 292 291 289 288 287 286 285 284 283 282 282 281 280 279 278 277 276 275 274 273 272 270 269 268 266 265 263 260 258 255 253 252 250 249 248 247 246 245
333 332 331 329 328 326 323 321 319 317 315 314 312 311 310 309 309 308 306 305 304 303 302 300 299 298 297 296 295 294 293 292 291 289 288 287 286 285 284 283 283 282 281 280 279 277 276 275 275 274 273 272 271 269 268 267 265 263 261 259 256 254 252 250 249 248 247 246 245
331 330 328 327 325 322 320 318 316 315 314 312 311 311 310 309 308 307 306 305 304 303 301 300 299 298 297 297 295 294 293 293 291 290 288 287 286 285 284 284 283 282 281 280 278 277 276 275 274 273 273 272 270 269 268 267 265 263 261 259 257 255 253 251 250 248 247 246 245
329 327 326 324 322 319 318 316 315 314 313 312 311 311 310 309 308 306 305 305 304 302 301 300 299 298 297 296 295 294 294 293 291 290 288 287 286 285 284 284 283 282 281 279 278 277 276 275 274 273 272 271 270 268 267 266 264 263 261 260 258 256 254 252 250 249 248 246 246
327 325 323 321 319 317 316 315 314 313 313 312 311 310 309 308 307 306 305 304 303 302 301 300 299 298 297 296 295 294 293 292 291 290 289 287 286 285 285 284 283 281 280 279 278 277 276 275 274 273 272 270 269 267 266 265 263 262 260 259 257 256 254 253 251 249 248 247 246
324 322 320 319 317 316 315 315 314 313 312 311 311 310 308 307 307 306 305 304 303 302 301 300 299 298 297 296 295 294 292 292 291 290 290 288 287 286 285 284 283 281 279 278 277 276 275 274 274 273 272 270 268 267 265 263 262 260 259 258 256 255 254 252 250 249 247 246 245
322 320 319 317 316 315 315 314 313 312 312 311 310 309 308 307 306 306 305 304 303 302 302 301 299 298 297 297 295 294 292 291 290 290 290 289 288 287 286 285 283 281 279 278 277 276 274 273 272 272 272 271 270 268 267 264 262 260 259 257 256 255 253 251 249 248 246 245 244
320 319 317 316 315 315 314 313 313 312 311 310 309 308 307 307 306 306 305 304 303 303 302 301 300 299 298 297 295 294 292 291 290 290 290 289 289 288 287 285 283 281 280 279 277 276 275 273 272 271 271 271 271 270 269 267 265 263 261 260 258 257 254 252 250 248 246 245 244
318 317 316 315 315 314 313 313 312 311 310 310 309 308 307 307 306 305 305 304 303 303 303 301 300 299 299 297 295 294 293 293 292 291 290 290 289 288 287 286 284 282 280 279 278 277 275 274 272 270 269 269 269 269 268 267 266 265 264 262 261 259 257 255 253 250 248 246 244
317 316 315 315 314 313 313 313 312 311 310 310 309 308 307 307 306 306 305 304 304 304 303 302 301 300 299 297 296 295 294 294 293 292 292 290 289 288 287 285 283 282 281 280 279 277 276 275 273 271 269 267 266 266 265 265 265 264 263 262 260 258 257 257 256 254 252 249 246
316 315 315 314 314 313 313 312 312 311 310 310 309 308 308 307 306 306 305 305 305 305 304 303 302 301 299 297 296 296 295 295 294 293 292 291 289 288 286 285 283 282 281 280 279 278 276 275 273 272 270 267 265 264 264 263 263 262 260 259 258 256 255 255 255 254 253 252 249
315 315 315 314 314 313 313 312 312 311 310 310 309 309 308 307 307 306 306 306 306 305 304 303 301 300 298 297 297 296 296 295 295 293 292 290 289 288 287 285 283 282 281 281 279 278 276 275 273 272 270 268 266 264 263 261 260 259 258 257 256 254 253 253 252 252 252 251 249
315 315 315 314 314 313 312 312 312 311 311 310 310 309 308 308 307 307 307 306 306 305 304 303 301 299 298 297 297 296 296 295 295 294 292 290 289 288 287 285 283 282 282 280 279 277 276 274 273 271 269 267 266 264 262 260 259 258 257 256 255 254 253 252 251 251 250 250 248
316 316 316 315 314 313 313 313 313 312 311 311 310 310 309 308 307 307 307 307 306 306 305 304 302 301 300 300 299 298 297 295 295 293 292 290 288 288 287 285 284 283 281 280 279 277 276 274 272 270 268 266 264 262 260 259 258 257 256 256 255 254 253 252 251 250 249 249 248
317 317 316 315 314 313 313 313 313 313 312 311 311 310 309 309 309 308 308 308 308 307 306 304 303 302 301 301 300 299 298 296 295 293 292 290 288 287 286 286 284 283 281 280 279 277 276 274 272 270 268 266 264 261 259 257 256 255 254 254 254 253 251 250 250 249 249 248 248
318 318 317 315 314 314 314 314 314 313 313 312 311 310 310 310 310 310 309 309 309 307 306 304 303 301 300 300 299 298 297 296 295 293 292 291 289 287 286 285 285 283 282 281 280 278 276 274 272 270 268 266 264 261 259 256 254 253 252 251 251 251 250 249 248 248 248 247 247
319 318 317 316 315 315 314 314 314 314 313 312 311 311 311 311 311 310 310 310 309 308 306 305 303 301 300 299 297 296 296 295 294 294 293 291 290 288 286 285 285 285 283 281 280 279 277 275 273 271 269 267 264 261 258 256 253 251 250 249 249 248 248 247 247 246 246 245 245
319 318 317 316 315 315 314 314 314 313 313 312 312 312 312 312 312 311 311 311 310 308 307 306 304 302 301 300 298 297 296 295 294 293 292 292 290 288 287 285 286 286 285 282 281 279 278 276 274 271 269 267 264 261 258 255 252 250 249 248 247 246 245 245 245 244 244 243 242
320 319 317 316 315 314 314 314 313 313 312 312 312 312 312 312 312 312 312 312 310 309 307 306 305 302 301 300 299 298 297 296 295 294 293 292 290 289 287 287 287 287 287 285 283 281 279 277 275 272 269 266 263 260 257 254 252 250 250 248 246 245 244 243 242 242 241 241 240
320 319 317 315 314 313 313 313 313 312 311 311 311 312 312 312 312 312 312 312 310 308 307 305 303 302 301 300 299 298 297 297 295 294 293 292 291 290 289 288 288 288 288 288 286 283 281 279 276 273 269 266 262 259 256 253 251 249 248 248 246 245 243 242 240 240 239 239 238
321 319 317 315 314 313 312 312 312 311 311 311 311 312 312 313 312 312 312 310 308 307 305 303 302 301 301 301 300 299 298 297 296 295 294 293 292 292 292 291 290 290 290 290 289 286 284 281 278 274 271 266 262 258 255 252 250 248 247 246 245 244 242 240 239 238 238 238 238
320 319 317 315 314 312 312 311 311 310 310 310 311 312 312 312 311 311 310 309 307 306 304 302 302 301 301 301 300 299 298 298 297 297 296 294 294 295 295 293 292 291 292 292 291 289 287 284 281 277 273 268 263 258 254 251 249 247 246 245 244 243 241 239 237 236 236 235 236
321 319 318 316 314 313 311 310 310 310 310 311 311 311 311 311 311 310 309 308 307 306 304 303 302 302 302 301 301 299 298 298 299 299 298 297 296 297 297 295 294 293 293 293 293 292 290 287 285 282 278 272 265 258 253 249 247 246 245 244 243 242 240 238 236 234 233 233 233
Height
785 785 785 784 784 783 782 782 781 781 780 779 778 778 777 777 776 776 775 775 774 774 773 773 773 773 773 773 773 772 772 772 772 771 771 770 770 769 769 768 768 767 767 767 767 767 766 766 766 765 765 764 764 764 763 763 763 762 762 762 761 761 760 759 758 758 757 757 757
785 784 784 783 783 782 782 781 780 780 779 778 777 777 776 776 775 774 773 773 772 772 772 772 771 771 771 771 771 771 771 771 770 770 770 769 769 768 768 767 767 766 766 765 765 765 764 764 764 763 763 762 762 762 761 761 761 761 760 759 759 758 758 757 757 756 756 755 755
784 784 783 783 782 782 781 780 780 779 778 777 777 776 775 775 774 773 772 772 771 771 771 770 770 770 770 770 770 769 769 769 769 768 768 768 767 767 767 766 766 765 764 764 763 763 762 762 762 761 761 760 760 759 759 759 759 758 757 757 757 757 756 755 755 754 754 753 753
783 783 783 782 782 781 781 780 779 778 777 777 776 775 774 773 773 772 771 771 770 770 770 769 769 769 768 768 768 767 767 767 767 767 766 766 766 765 765 764 764 763 763 762 762 761 761 760 759 759 758 758 757 757 757 757 757 756 755 755 754 754 753 753 752 752 752 751 751
783 782 782 782 781 781 780 779 778 777 776 776 775 774 773 772 772 771 770 770 769 769 769 768 768 767 767 767 766 766 765 765 765 764 764 763 763 763 762 762 762 761 761 760 760 759 758 758 757 756 756 755 755 754 754 754 754 753 753 752 752 752 751 751 750 750 750 749 749
782 782 782 781 780 779 779 778 777 776 775 774 773 772 772 771 771 770 769 769 768 768 767 767 767 766 765 765 764 764 763 763 762 762 762 761 761 760 760 759 759 759 758 758 757 757 756 756 755 754 753 753 752 752 752 752 752 751 751 750 750 750 749 748 748 748 748 747 747
782 781 780 780 779 778 777 776 775 774 773 772 772 771 770 770 769 769 768 768 767 767 766 766 765 764 764 763 762 762 761 761 760 760 759 759 758 758 757 757 757 756 756 755 755 754 754 753 752 751 751 750 749 749 749 749 749 748 748 747 747 747 747 746 746 746 746 745 744
780 780 779 778 777 776 775 774 773 772 772 771 770 770 769 769 768 767 767 766 766 765 765 764 764 763 762 762 761 760 759 759 758 757 757 756 756 755 755 754 754 753 753 752 752 752 751 751 750 749 748 747 747 746 746 746 746 746 745 745 744 744 744 744 743 743 743 742 742
779 778 777 777 776 774 773 772 772 771 770 770 769 769 768 767 767 766 765 765 764 763 763 762 762 761 761 760 759 758 757 757 756 755 754 754 753 752 752 752 751 751 750 750 750 749 749 748 747 746 746 745 744 743 743 743 743 742 742 742 742 741 741 741 741 741 740 740 740
777 777 776 775 774 773 772 771 771 770 769 769 768 767 767 766 766 765 764 763 762 762 761 760 760 759 758 758 757 756 755 754 753 753 752 751 751 750 749 749 748 748 747 747 747 746 746 745 744 743 742 742 741 741 740 740 740 739 739 739 739 738 738 738 738 738 738 737 737
776 775 774 773 772 772 771 770 770 769 768 768 767 767 766 765 764 763 762 762 761 760 759 759 758 757 756 756 755 754 753 752 751 750 749 748 748 747 747 747 746 745 745 744 744 743 743 742 741 740 739 739 738 738 737 737 737 737 736 736 736 735 735 735 735 735 735 735 734
774 774 773 772 772 771 770 769 769 768 767 767 766 765 764 763 762 762 761 760 759 758 757 757 756 755 754 753 752 752 751 750 749 747 747 746 745 745 744 744 743 742 742 741 741 741 740 739 738 737 736 736 735 735 734 734 734 733 733 732 732 732 732 731 732 732 732 732 732
773 772 772 771 771 770 769 768 768 767 766 765 764 763 762 762 761 760 759 758 757 756 755 754 754 753 752 751 750 749 748 747 746 745 744 743 742 742 741 741 740 740 739 738 738 737 737 736 735 734 733 732 732 732 731 731 731 730 730 729 729 729 728 728 728 729 729 729 729
772 772 771 770 770 769 768 767 767 766 765 764 763 762 761 760 759 758 757 756 755 754 753 752 752 751 750 749 748 747 746 744 743 742 742 740 740 739 738 737 737 736 736 735 735 734 734 733 732 731 731 730 729 728 728 727 727 727 726 726 726 725 725 725 725 726 726 726 725
772 771 770 769 769 768 767 766 765 764 763 762 761 760 759 758 757 757 756 754 753 752 751 750 749 748 747 746 745 744 743 742 741 740 739 738 737 736 735 734 734 733 732 732 731 731 730 730 729 728 727 727 726 725 725 724 724 723 723 723 722 722 722 722 722 722 722 722 722
771 770 769 768 767 767 766 764 763 762 762 760 759 758 757 757 756 755 754 752 751 750 749 748 747 745 744 743 742 742 740 739 738 737 736 735 734 733 732 732 731 730 729 729 728 727 727 726 726 725 724 724 723 722 722 721 721 720 720 719 719 718 718 718 719 719 719 719 719
769 769 768 767 766 765 764 763 762 761 760 759 758 757 756 755 754 753 752 751 749 748 747 745 744 743 742 740 739 739 738 737 736 734 733 732 731 730 729 728 728 727 726 726 725 724 723 722 722 722 721 721 720 719 719 718 718 717 717 716 716 715 715 715 715 715 716 716 716
768 767 766 765 764 763 762 762 761 760 759 757 757 756 754 753 752 751 749 748 747 746 744 743 742 741 739 738 737 736 735 734 733 732 731 729 728 727 727 726 725 724 723 723 722 721 720 719 718 718 718 717 717 716 716 715 714 714 713 713 712 712 712 712 712 712 712 712 712
767 766 765 764 763 762 761 760 759 758 757 756 755 754 752 751 750 748 747 746 745 744 742 740 739 738 737 735 734 733 732 731 730 729 727 727 726 725 723 722 722 721 720 720 718 717 717 716 715 715 714 714 713 713 712 712 711 711 710 710 709 709 708 708 708 708 708 708 708
766 764 763 763 762 761 760 759 758 757 756 754 753 752 750 749 748 747 745 743 742 741 740 738 737 735 734 732 731 730 729 728 727 726 724 723 722 722 720 719 719 718 717 716 715 714 713 712 712 712 711 711 710 709 709 708 708 707 707 706 706 705 705 705 705 705 705 705 705
764 763 762 762 761 760 759 757 757 755 754 753 751 750 748 747 746 744 743 741 740 738 737 736 734 733 731 730 728 727 726 725 724 723 722 720 719 718 717 717 716 715 714 713 712 711 710 709 709 708 708 707 707 706 706 705 704 704 703 703 702 702 702 701 701 701 701 701 702
763 762 761 760 759 758 757 756 755 754 752 751 749 748 746 745 743 742 740 739 737 736 735 733 732 730 729 727 726 724 723 722 721 720 718 717 716 715 714 713 712 711 710 709 708 707 707 706 706 705 705 704 703 703 702 702 701 700 700 699 699 698 698 698 698 697 697 697 698
762 761 760 759 758 757 756 754 753 752 750 749 747 746 744 742 741 739 738 736 735 733 732 730 729 727 726 725 723 722 720 718 717 716 715 714 713 712 711 710 709 708 707 706 705 704 704 703 702 702 702 701 700 699 699 698 697 697 696 695 695 695 694 694 694 694 694 694 694
761 760 759 757 757 755 754 753 751 750 748 747 745 744 742 740 739 737 735 734 732 731 729 728 726 725 723 722 721 719 717 716 714 712 711 710 709 708 707 707 706 705 703 702 702 702 701 701 700 699 698 698 697 696 695 694 694 693 692 692 691 691 690 690 690 690 690 689 689
759 758 757 756 755 753 752 751 749 748 747 745 743 742 740 738 737 735 733 731 729 728 727 725 723 722 720 719 717 716 715 713 711 709 707 706 705 705 704 704 703 702 700 699 699 699 698 698 697 697 696 695 694 693 692 691 690 689 689 688 687 687 686 686 685 685 685 685 685
758 757 755 754 753 752 750 749 748 746 745 743 741 740 738 736 734 733 731 729 727 725 724 722 721 719 717 716 714 712 711 710 709 707 706 704 702 702 701 701 700 698 697 697 696 696 695 695 695 694 693 692 691 690 689 688 687 686 685 685 684 683 682 682 681 681 681 681 681
756 755 754 752 751 750 748 747 746 744 743 741 739 737 736 734 732 731 729 727 725 723 722 720 718 717 715 713 711 710 708 707 706 705 703 702 700 699 698 697 696 695 694 693 693 692 692 692 691 691 691 690 689 687 686 685 684 683 682 682 681 680 679 678 677 677 677 677 677
755 753 752 751 749 748 747 745 744 742 741 739 737 735 733 732 730 728 726 724 722 721 719 717 715 714 712 711 709 707 706 705 703 702 701 699 698 697 695 694 693 692 691 690 690 689 688 688 687 687 687 687 686 684 683 682 681 680 679 678 678 677 676 675 675 674 674 674 674
753 752 751 749 748 746 745 743 742 740 738 737 735 733 731 729 728 726 724 722 720 719 717 715 713 712 710 708 706 705 703 702 701 700 698 697 695 694 692 691 690 688 687 687 686 685 685 684 684 683 683 683 682 681 679 678 677 677 676 675 674 673 673 672 672 672 671 671 671
752 750 749 747 746 744 743 741 740 738 737 735 733 731 729 727 725 723 722 720 718 717 715 713 712 709 707 706 704 703 701 699 698 697 695 694 692 691 689 688 687 685 684 683 682 682 681 680 680 679 679 679 678 677 676 675 674 673 672 671 671 670 670 669 669 669 668 668 668
750 749 747 746 744 742 741 739 737 736 734 732 731 729 727 725 723 722 720 718 717 714 712 711 709 707 705 703 702 701 699 697 696 694 693 691 689 687 686 684 683 682 680 679 678 677 677 676 675 675 675 675 674 673 672 671 670 669 668 667 667 667 667 666 666 666 665 665 665
748 747 746 744 742 740 738 737 735 734 732 730 728 727 725 723 721 720 718 716 714 712 710 708 707 705 702 701 700 698 697 695 693 691 690 688 686 684 682 681 679 677 676 675 674 673 672 672 671 671 670 670 670 669 668 667 666 665 664 664 663 663 663 663 663 662 662 662 662
747 745 744 742 740 738 736 735 733 732 730 728 726 725 723 721 719 717 716 714 712 711 708 707 705 702 701 699 697 695 694 692 690 688 687 685 683 681 679 677 675 673 672 671 670 669 668 667 667 666 666 666 665 665 664 663 662 661 660 660 659 659 659 659 659 659 659 659 659
745 743 742 740 738 736 734 732 731 729 727 726 724 722 721 719 717 715 713 712 710 709 707 705 703 701 699 697 695 693 691 689 687 685 683 682 680 678 676 673 672 670 668 667 666 664 663 663 662 662 661 661 661 660 659 658 657 657 656 655 655 655 655 655 655 655 656 656 656
743 742 740 738 736 734 732 731 729 727 726 724 722 720 718 717 716 714 712 710 708 707 704 702 701 699 697 695 693 691 689 687 684 682 680 678 677 674 672 669 667 665 664 662 661 660 659 658 657 657 657 656 656 655 654 653 652 652 651 651 650 651 651 651 651 652 652 652 652
742 741 738 736 734 732 731 729 727 726 724 722 720 718 716 715 713 712 710 708 707 704 702 700 698 696 694 692 690 688 687 684 682 679 677 675 673 671 668 665 663 661 659 658 657 655 654 653 652 652 652 652 651 650 649 648 647 647 646 646 646 646 646 646 647 647 647 648 648
741 739 737 735 733 731 729 728 726 724 722 720 718 717 715 713 711 710 708 707 705 702 700 698 696 694 692 690 688 686 683 682 679 677 674 672 670 668 665 662 659 656 654 653 652 651 649 648 647 647 647 647 646 646 645 644 643 642 642 641 641 641 641 642 642 642 642 643 644
739 738 736 734 732 730 728 727 725 723 721 719 717 715 714 712 710 708 707 705 703 701 698 696 693 691 689 687 685 683 680 678 677 674 672 669 667 664 662 658 655 652 650 649 647 646 645 644 643 642 642 642 642 641 640 639 638 637 637 637 636 636 637 637 637 637 637 638 638
738 736 735 733 731 729 727 725 723 722 720 717 716 713 712 710 709 707 705 703 702 700 697 694 691 689 687 685 683 680 677 675 673 671 669 666 663 661 659 656 652 649 646 644 643 642 640 639 638 637 637 637 637 637 636 635 634 633 632 632 632 632 632 632 633 633 632 633 634
736 735 733 732 730 728 726 724 722 720 719 717 714 712 711 709 707 705 703 702 700 698 695 692 690 687 685 683 681 678 675 672 670 668 666 663 660 658 656 653 649 646 642 641 639 637 636 634 633 632 632 633 632 632 631 631 630 629 628 628 628 628 627 628 628 628 628 628 629
735 734 732 731 729 727 725 723 721 719 717 715 713 712 709 708 706 704 702 700 698 696 693 691 688 685 683 681 679 677 673 670 667 665 662 660 657 655 652 649 646 642 639 637 635 633 632 630 629 628 628 628 628 627 627 627 626 625 624 623 624 624 623 623 623 624 624 624 624